Wetterdaten: Woche 27.11.17 - 03.12.17 (KW48)
Datum Zeit Temp. Aussen Temp. o. S. +5cm Feuchte Auss BlattFeu 1 Luftdruck Regen Sonnenschein Regendauer Solar Windben Empfang
27.11.2017 00:00 3,7 C 2,8 C 1,7 C 92 % 15 lf 1022,1 hPa 0,2 l/m 0,00 h 0,10 h 0 W/m 18,3 km/h (3 Bft) 97,14 %
27.11.2017 01:00 3,6 C 3,2 C 2,2 C 92 % 11 lf 1021,6 hPa 0,0 l/m 0,00 h 0,00 h 0 W/m 25,6 km/h (4 Bft) 94,25 %
27.11.2017 02:00 3,7 C 3,3 C 2,0 C 92 % 3 lf 1021,4 hPa 0,0 l/m 0,00 h 0,30 h 0 W/m 24,5 km/h (4 Bft) 96,15 %
27.11.2017 03:00 3,8 C 3,8 C 2,2 C 92 % 0 lf 1021,0 hPa 0,0 l/m 0,00 h 0,13 h 0 W/m 24,7 km/h (4 Bft) 97,44 %
27.11.2017 04:00 3,7 C 3,3 C 1,7 C 90 % 0 lf 1020,4 hPa 0,0 l/m 0,00 h 0,07 h 0 W/m 22,4 km/h (4 Bft) 95,80 %
27.11.2017 05:00 3,4 C 3,3 C 1,7 C 90 % 0 lf 1019,5 hPa 0,0 l/m 0,00 h 0,00 h 0 W/m 23,5 km/h (4 Bft) 96,75 %
27.11.2017 06:00 3,7 C 3,8 C 2,2 C 90 % 0 lf 1018,7 hPa 0,0 l/m 0,00 h 0,00 h 0 W/m 26,2 km/h (4 Bft) 96,43 %
27.11.2017 07:00 4,3 C 4,0 C 2,8 C 90 % 5 lf 1017,7 hPa 0,0 l/m 0,00 h 0,70 h 0 W/m 27,5 km/h (4 Bft) 95,90 %
27.11.2017 08:00 4,9 C 4,4 C 3,1 C 92 % 15 lf 1016,6 hPa 0,2 l/m 0,00 h 0,97 h 10 W/m 26,9 km/h (4 Bft) 96,80 %
27.11.2017 09:00 5,4 C 4,9 C 3,8 C 94 % 15 lf 1015,7 hPa 0,6 l/m 0,00 h 1,00 h 20 W/m 31,1 km/h (5 Bft) 96,44 %
27.11.2017 10:00 5,8 C 5,4 C 4,4 C 95 % 15 lf 1014,5 hPa 1,0 l/m 0,00 h 1,00 h 41 W/m 37,1 km/h (5 Bft) 95,42 %
27.11.2017 11:00 6,1 C 5,6 C 4,5 C 95 % 15 lf 1013,3 hPa 1,6 l/m 0,00 h 1,00 h 39 W/m 41,7 km/h (6 Bft) 96,24 %
27.11.2017 12:00 6,4 C 5,7 C 5,0 C 95 % 15 lf 1011,5 hPa 0,6 l/m 0,00 h 1,00 h 36 W/m 45,0 km/h (6 Bft) 98,14 %
27.11.2017 13:00 6,7 C 6,1 C 5,0 C 95 % 15 lf 1010,6 hPa 1,0 l/m 0,00 h 1,00 h 28 W/m 42,6 km/h (6 Bft) 93,48 %
27.11.2017 14:00 6,9 C 6,2 C 5,4 C 95 % 15 lf 1009,8 hPa 0,4 l/m 0,00 h 0,98 h 37 W/m 48,0 km/h (6 Bft) 97,70 %
27.11.2017 15:00 7,1 C 6,1 C 5,6 C 95 % 15 lf 1009,1 hPa 0,2 l/m 0,00 h 1,00 h 14 W/m 43,0 km/h (6 Bft) 97,23 %
27.11.2017 16:00 7,2 C 6,6 C 5,6 C 95 % 15 lf 1008,6 hPa 0,0 l/m 0,00 h 1,00 h 2 W/m 36,1 km/h (5 Bft) 96,38 %
27.11.2017 17:00 7,3 C 6,7 C 5,6 C 95 % 15 lf 1008,0 hPa 0,2 l/m 0,00 h 1,00 h 0 W/m 39,1 km/h (6 Bft) 95,86 %
27.11.2017 18:00 7,4 C 6,7 C 5,6 C 95 % 15 lf 1007,6 hPa 0,0 l/m 0,00 h 0,93 h 0 W/m 33,5 km/h (5 Bft) 97,33 %
27.11.2017 19:00 7,6 C 7,2 C 5,8 C 96 % 11 lf 1007,1 hPa 0,0 l/m 0,00 h 0,93 h 0 W/m 33,9 km/h (5 Bft) 95,44 %
27.11.2017 20:00 7,6 C 7,2 C 5,6 C 94 % 2 lf 1006,7 hPa 0,0 l/m 0,00 h 0,63 h 0 W/m 32,7 km/h (5 Bft) 98,41 %
27.11.2017 21:00 7,6 C 7,2 C 5,6 C 94 % 3 lf 1006,2 hPa 0,2 l/m 0,00 h 0,30 h 0 W/m 29,9 km/h (5 Bft) 93,67 %
27.11.2017 22:00 6,3 C 5,3 C 4,4 C 94 % 15 lf 1006,4 hPa 2,2 l/m 0,00 h 1,00 h 0 W/m 22,0 km/h (4 Bft) 96,63 %
27.11.2017 23:00 5,5 C 5,0 C 4,1 C 96 % 15 lf 1006,4 hPa 0,4 l/m 0,00 h 0,90 h 0 W/m 22,8 km/h (4 Bft) 98,61 %
28.11.2017 00:00 5,2 C 4,5 C 3,8 C 96 % 15 lf 1005,9 hPa 0,0 l/m 0,00 h 0,07 h 0 W/m 24,8 km/h (4 Bft) 94,63 %
28.11.2017 01:00 5,2 C 4,4 C 3,5 C 95 % 15 lf 1005,3 hPa 0,0 l/m 0,00 h 0,00 h 0 W/m 23,8 km/h (4 Bft) 96,17 %
28.11.2017 02:00 5,1 C 4,4 C 3,3 C 95 % 15 lf 1005,2 hPa 0,0 l/m 0,00 h 0,00 h 0 W/m 19,4 km/h (3 Bft) 97,49 %
28.11.2017 03:00 5,2 C 4,9 C 3,7 C 95 % 15 lf 1004,7 hPa 0,0 l/m 0,00 h 0,00 h 0 W/m 18,3 km/h (3 Bft) 96,46 %
28.11.2017 04:00 5,4 C 5,0 C 3,9 C 96 % 10 lf 1004,5 hPa 0,0 l/m 0,00 h 0,00 h 0 W/m 19,8 km/h (4 Bft) 97,19 %
28.11.2017 05:00 5,3 C 4,8 C 3,5 C 96 % 0 lf 1004,5 hPa 0,0 l/m 0,00 h 0,00 h 0 W/m 17,4 km/h (3 Bft) 96,05 %
28.11.2017 06:00 5,0 C 4,2 C 2,8 C 95 % 0 lf 1004,5 hPa 0,0 l/m 0,00 h 0,00 h 0 W/m 15,5 km/h (3 Bft) 95,62 %
28.11.2017 07:00 4,3 C 3,9 C 2,2 C 95 % 0 lf 1004,8 hPa 0,0 l/m 0,00 h 0,00 h 0 W/m 17,2 km/h (3 Bft) 97,68 %
28.11.2017 08:00 4,1 C 3,9 C 2,2 C 96 % 0 lf 1005,2 hPa 0,0 l/m 0,00 h 0,00 h 18 W/m 20,0 km/h (4 Bft) 96,54 %
28.11.2017 09:00 4,4 C 5,0 C 2,9 C 96 % 0 lf 1005,5 hPa 0,0 l/m 1,00 h 0,00 h 94 W/m 20,8 km/h (4 Bft) 94,77 %
28.11.2017 10:00 5,3 C 7,1 C 3,7 C 95 % 0 lf 1005,6 hPa 0,0 l/m 0,93 h 0,00 h 178 W/m 27,0 km/h (4 Bft) 95,55 %
28.11.2017 11:00 6,2 C 9,5 C 4,7 C 91 % 0 lf 1005,4 hPa 0,0 l/m 0,63 h 0,00 h 182 W/m 32,1 km/h (5 Bft) 96,98 %
28.11.2017 12:00 6,6 C 8,8 C 5,4 C 89 % 0 lf 1005,0 hPa 0,0 l/m 0,73 h 0,00 h 171 W/m 28,3 km/h (4 Bft) 94,53 %
28.11.2017 13:00 7,4 C 10,0 C 6,5 C 86 % 0 lf 1004,7 hPa 0,0 l/m 0,63 h 0,00 h 198 W/m 27,3 km/h (4 Bft) 98,67 %
28.11.2017 14:00 7,2 C 8,2 C 6,8 C 85 % 0 lf 1004,3 hPa 0,0 l/m 0,50 h 0,00 h 130 W/m 22,1 km/h (4 Bft) 94,96 %
28.11.2017 15:00 7,0 C 6,9 C 5,6 C 83 % 0 lf 1004,3 hPa 0,0 l/m 0,07 h 0,03 h 28 W/m 17,6 km/h (3 Bft) 95,95 %
28.11.2017 16:00 6,3 C 4,9 C 4,0 C 87 % 14 lf 1004,3 hPa 0,8 l/m 0,00 h 0,70 h 5 W/m 10,1 km/h (2 Bft) 97,97 %
28.11.2017 17:00 5,2 C 3,8 C 2,9 C 91 % 15 lf 1004,1 hPa 0,2 l/m 0,00 h 0,23 h 0 W/m 6,5 km/h (2 Bft) 94,53 %
28.11.2017 18:00 4,8 C 4,0 C 3,2 C 93 % 15 lf 1004,1 hPa 0,0 l/m 0,00 h 0,00 h 0 W/m 4,7 km/h (1 Bft) 98,15 %
28.11.2017 19:00 4,6 C 4,0 C 2,9 C 94 % 15 lf 1003,9 hPa 0,0 l/m 0,00 h 0,00 h 0 W/m 8,8 km/h (2 Bft) 95,58 %
28.11.2017 20:00 4,4 C 3,9 C 2,8 C 94 % 15 lf 1003,9 hPa 0,0 l/m 0,00 h 0,00 h 0 W/m 8,5 km/h (2 Bft) 95,24 %
28.11.2017 21:00 4,0 C 2,9 C 1,7 C 94 % 15 lf 1003,9 hPa 0,0 l/m 0,00 h 0,00 h 0 W/m 8,3 km/h (2 Bft) 98,77 %
28.11.2017 22:00 3,2 C 2,6 C 1,7 C 94 % 15 lf 1003,9 hPa 0,0 l/m 0,00 h 0,00 h 0 W/m 8,2 km/h (2 Bft) 96,48 %
28.11.2017 23:00 2,9 C 2,0 C 0,8 C 95 % 15 lf 1003,7 hPa 0,0 l/m 0,00 h 0,00 h 0 W/m 7,9 km/h (2 Bft) 95,19 %
29.11.2017 00:00 2,3 C 1,2 C 0,1 C 95 % 15 lf 1003,6 hPa 0,0 l/m 0,00 h 0,00 h 0 W/m 8,9 km/h (2 Bft) 95,45 %
29.11.2017 01:00 1,9 C 0,9 C -0,3 C 95 % 15 lf 1003,6 hPa 0,0 l/m 0,00 h 0,00 h 0 W/m 8,5 km/h (2 Bft) 98,32 %
29.11.2017 02:00 1,9 C 1,1 C 0,0 C 96 % 15 lf 1003,4 hPa 0,0 l/m 0,00 h 0,00 h 0 W/m 10,1 km/h (2 Bft) 96,80 %
29.11.2017 03:00 1,9 C 1,6 C 0,6 C 96 % 15 lf 1003,3 hPa 0,0 l/m 0,00 h 0,00 h 0 W/m 10,1 km/h (2 Bft) 95,65 %
29.11.2017 04:00 2,1 C 1,7 C 1,1 C 97 % 15 lf 1003,2 hPa 0,0 l/m 0,00 h 0,00 h 0 W/m 8,9 km/h (2 Bft) 97,43 %
29.11.2017 05:00 2,1 C 1,6 C 0,7 C 97 % 15 lf 1003,1 hPa 0,0 l/m 0,00 h 0,00 h 0 W/m 10,9 km/h (2 Bft) 95,50 %
29.11.2017 06:00 1,7 C 0,9 C -0,2 C 97 % 15 lf 1003,1 hPa 0,0 l/m 0,00 h 0,00 h 0 W/m 12,7 km/h (3 Bft) 98,44 %
29.11.2017 07:00 1,1 C 0,5 C -0,8 C 97 % 15 lf 1003,3 hPa 0,2 l/m 0,00 h 0,00 h 0 W/m 11,0 km/h (2 Bft) 98,01 %
29.11.2017 08:00 0,7 C 0,0 C -1,1 C 97 % 15 lf 1003,7 hPa 0,0 l/m 0,00 h 0,00 h 14 W/m 11,8 km/h (2 Bft) 93,48 %
29.11.2017 09:00 0,7 C 0,9 C -0,5 C 97 % 15 lf 1004,0 hPa 0,0 l/m 0,13 h 0,00 h 60 W/m 12,8 km/h (3 Bft) 97,29 %
29.11.2017 10:00 1,7 C 2,8 C 1,2 C 97 % 1 lf 1004,3 hPa 0,0 l/m 0,23 h 0,00 h 105 W/m 14,5 km/h (3 Bft) 97,79 %
29.11.2017 11:00 2,9 C 7,5 C 2,3 C 97 % 0 lf 1004,2 hPa 0,0 l/m 0,50 h 0,00 h 177 W/m 11,4 km/h (2 Bft) 94,20 %
29.11.2017 12:00 3,8 C 5,2 C 2,7 C 92 % 0 lf 1004,0 hPa 0,0 l/m 0,17 h 0,00 h 110 W/m 10,4 km/h (2 Bft) 98,38 %
29.11.2017 13:00 4,2 C 4,6 C 2,9 C 89 % 0 lf 1003,8 hPa 0,0 l/m 0,00 h 0,00 h 54 W/m 7,9 km/h (2 Bft) 96,44 %
29.11.2017 14:00 4,3 C 5,3 C 3,2 C 88 % 0 lf 1003,8 hPa 0,0 l/m 0,03 h 0,00 h 73 W/m 7,2 km/h (2 Bft) 96,33 %
29.11.2017 15:00 4,3 C 4,4 C 2,8 C 87 % 0 lf 1004,0 hPa 0,0 l/m 0,00 h 0,00 h 34 W/m 4,7 km/h (1 Bft) 96,07 %
29.11.2017 16:00 4,0 C 3,5 C 2,2 C 88 % 0 lf 1004,2 hPa 0,0 l/m 0,00 h 0,00 h 9 W/m 3,0 km/h (1 Bft) 96,94 %
29.11.2017 17:00 3,7 C 2,9 C 1,9 C 89 % 0 lf 1004,4 hPa 0,0 l/m 0,00 h 0,00 h 0 W/m 1,6 km/h (1 Bft) 96,10 %
29.11.2017 18:00 2,9 C 1,2 C 0,1 C 90 % 1 lf 1004,7 hPa 0,0 l/m 0,00 h 0,00 h 0 W/m 0,0 km/h (0 Bft) 98,77 %
29.11.2017 19:00 2,2 C 0,8 C -0,3 C 90 % 2 lf 1004,9 hPa 0,0 l/m 0,00 h 0,00 h 0 W/m 0,0 km/h (0 Bft) 94,25 %
29.11.2017 20:00 1,4 C -0,3 C -1,5 C 91 % 6 lf 1005,4 hPa 0,0 l/m 0,00 h 0,00 h 0 W/m 3,0 km/h (1 Bft) 95,60 %
29.11.2017 21:00 0,5 C -1,3 C -2,2 C 92 % 12 lf 1005,5 hPa 0,0 l/m 0,00 h 0,00 h 0 W/m 2,8 km/h (1 Bft) 97,09 %
29.11.2017 22:00 -0,2 C -1,9 C -2,9 C 92 % 14 lf 1005,5 hPa 0,0 l/m 0,00 h 0,00 h 0 W/m 0,0 km/h (0 Bft) 97,93 %
29.11.2017 23:00 -0,9 C -2,2 C -2,9 C 93 % 15 lf 1005,6 hPa 0,0 l/m 0,00 h 0,00 h 0 W/m 2,0 km/h (1 Bft) 96,09 %
30.11.2017 00:00 -1,2 C -1,9 C -2,7 C 94 % 15 lf 1005,5 hPa 0,0 l/m 0,00 h 0,00 h 0 W/m 3,0 km/h (1 Bft) 91,41 %
30.11.2017 01:00 -0,6 C -0,6 C -1,2 C 95 % 15 lf 1005,1 hPa 0,0 l/m 0,00 h 0,00 h 0 W/m 6,3 km/h (2 Bft) 98,23 %
30.11.2017 02:00 0,3 C 0,4 C -0,2 C 96 % 15 lf 1004,7 hPa 0,0 l/m 0,00 h 0,00 h 0 W/m 7,2 km/h (2 Bft) 94,85 %
30.11.2017 03:00 0,9 C 0,9 C 0,3 C 96 % 15 lf 1004,4 hPa 0,0 l/m 0,00 h 0,10 h 0 W/m 8,6 km/h (2 Bft) 98,06 %
30.11.2017 04:00 1,4 C 1,2 C 0,6 C 97 % 15 lf 1004,1 hPa 0,0 l/m 0,00 h 0,00 h 0 W/m 6,7 km/h (2 Bft) 95,84 %
30.11.2017 05:00 1,8 C 1,8 C 1,1 C 97 % 15 lf 1003,8 hPa 0,0 l/m 0,00 h 0,00 h 0 W/m 10,6 km/h (2 Bft) 95,46 %
30.11.2017 06:00 2,3 C 2,2 C 1,1 C 98 % 15 lf 1003,7 hPa 0,0 l/m 0,00 h 0,00 h 0 W/m 10,7 km/h (2 Bft) 98,35 %
30.11.2017 07:00 2,3 C 2,2 C 1,1 C 98 % 14 lf 1003,4 hPa 0,0 l/m 0,00 h 0,00 h 0 W/m 9,6 km/h (2 Bft) 96,02 %
30.11.2017 08:00 2,4 C 2,2 C 1,6 C 98 % 9 lf 1003,5 hPa 0,0 l/m 0,00 h 0,03 h 12 W/m 11,0 km/h (2 Bft) 94,13 %
30.11.2017 09:00 2,6 C 2,9 C 1,9 C 98 % 0 lf 1003,5 hPa 0,0 l/m 0,00 h 0,00 h 25 W/m 12,3 km/h (3 Bft) 97,63 %
30.11.2017 10:00 3,0 C 3,6 C 2,8 C 98 % 0 lf 1003,4 hPa 0,0 l/m 0,00 h 0,00 h 42 W/m 13,3 km/h (3 Bft) 95,66 %
30.11.2017 11:00 3,3 C 3,5 C 2,8 C 98 % 1 lf 1002,9 hPa 0,0 l/m 0,00 h 0,17 h 38 W/m 17,7 km/h (3 Bft) 96,95 %
30.11.2017 12:00 3,5 C 4,1 C 3,4 C 97 % 0 lf 1002,6 hPa 0,0 l/m 0,00 h 0,00 h 59 W/m 16,8 km/h (3 Bft) 96,17 %
30.11.2017 13:00 3,3 C 3,5 C 2,9 C 96 % 0 lf 1002,5 hPa 0,0 l/m 0,00 h 0,00 h 40 W/m 18,5 km/h (3 Bft) 95,64 %
30.11.2017 14:00 3,1 C 3,3 C 2,8 C 94 % 0 lf 1002,4 hPa 0,0 l/m 0,00 h 0,00 h 31 W/m 15,0 km/h (3 Bft) 98,10 %
30.11.2017 15:00 3,2 C 3,3 C 2,4 C 94 % 0 lf 1002,2 hPa 0,0 l/m 0,00 h 0,07 h 25 W/m 11,0 km/h (2 Bft) 96,47 %
30.11.2017 16:00 3,2 C 3,0 C 2,0 C 94 % 0 lf 1002,5 hPa 0,0 l/m 0,00 h 0,00 h 10 W/m 9,3 km/h (2 Bft) 94,92 %
30.11.2017 17:00 3,1 C 2,8 C 1,8 C 94 % 6 lf 1002,6 hPa 0,0 l/m 0,00 h 0,30 h 0 W/m 7,9 km/h (2 Bft) 96,91 %
30.11.2017 18:00 2,7 C 2,2 C 1,3 C 94 % 13 lf 1002,9 hPa 0,2 l/m 0,00 h 0,20 h 0 W/m 12,6 km/h (3 Bft) 97,39 %
30.11.2017 19:00 2,3 C 2,0 C 1,1 C 95 % 14 lf 1003,2 hPa 0,0 l/m 0,00 h 0,00 h 0 W/m 9,0 km/h (2 Bft) 97,43 %
30.11.2017 20:00 2,3 C 2,2 C 1,1 C 95 % 10 lf 1003,6 hPa 0,0 l/m 0,00 h 0,00 h 0 W/m 10,5 km/h (2 Bft) 94,71 %
30.11.2017 21:00 2,2 C 2,2 C 1,1 C 96 % 4 lf 1004,0 hPa 0,0 l/m 0,00 h 0,00 h 0 W/m 11,1 km/h (2 Bft) 97,36 %
30.11.2017 22:00 2,1 C 2,0 C 1,1 C 96 % 0 lf 1004,3 hPa 0,0 l/m 0,00 h 0,00 h 0 W/m 8,7 km/h (2 Bft) 96,36 %
30.11.2017 23:00 2,1 C 2,0 C 1,1 C 97 % 0 lf 1004,8 hPa 0,0 l/m 0,00 h 0,00 h 0 W/m 7,3 km/h (2 Bft) 96,40 %
01.12.2017 00:00 2,1 C 2,2 C 1,1 C 97 % 0 lf 1005,4 hPa 0,0 l/m 0,00 h 0,00 h 0 W/m 5,1 km/h (1 Bft) 97,03 %
01.12.2017 01:00 2,2 C 2,2 C 1,7 C 97 % 0 lf 1005,8 hPa 0,0 l/m 0,00 h 0,00 h 0 W/m 0,6 km/h (0 Bft) 94,71 %
01.12.2017 02:00 2,3 C 2,2 C 1,7 C 97 % 4 lf 1006,4 hPa 0,0 l/m 0,00 h 0,27 h 0 W/m 2,8 km/h (1 Bft) 96,72 %
01.12.2017 03:00 2,4 C 2,2 C 1,7 C 97 % 15 lf 1007,0 hPa 0,0 l/m 0,00 h 0,43 h 0 W/m 3,2 km/h (1 Bft) 98,78 %
01.12.2017 04:00 2,0 C 1,5 C 0,8 C 97 % 15 lf 1007,7 hPa 0,2 l/m 0,00 h 0,53 h 0 W/m 10,1 km/h (2 Bft) 94,53 %
01.12.2017 05:00 1,6 C 1,3 C 0,6 C 97 % 15 lf 1008,4 hPa 0,0 l/m 0,00 h 0,00 h 0 W/m 4,2 km/h (1 Bft) 96,24 %
01.12.2017 06:00 1,8 C 1,9 C 1,1 C 97 % 15 lf 1009,5 hPa 0,0 l/m 0,00 h 0,00 h 0 W/m 5,9 km/h (2 Bft) 97,56 %
01.12.2017 07:00 2,1 C 1,6 C 0,5 C 97 % 15 lf 1010,3 hPa 0,0 l/m 0,00 h 0,00 h 0 W/m 4,8 km/h (1 Bft) 95,89 %
01.12.2017 08:00 1,8 C 1,0 C 0,0 C 97 % 15 lf 1011,5 hPa 0,0 l/m 0,00 h 0,00 h 9 W/m 6,2 km/h (2 Bft) 97,47 %
01.12.2017 09:00 1,9 C 2,1 C 1,2 C 97 % 15 lf 1012,6 hPa 0,0 l/m 0,00 h 0,00 h 20 W/m 9,8 km/h (2 Bft) 94,59 %
01.12.2017 10:00 2,6 C 3,6 C 2,2 C 98 % 7 lf 1013,6 hPa 0,0 l/m 0,00 h 0,00 h 67 W/m 10,1 km/h (2 Bft) 97,12 %
01.12.2017 11:00 3,0 C 5,1 C 2,5 C 98 % 0 lf 1014,3 hPa 0,0 l/m 0,20 h 0,00 h 111 W/m 15,2 km/h (3 Bft) 97,39 %
01.12.2017 12:00 3,7 C 6,6 C 3,2 C 96 % 0 lf 1014,6 hPa 0,0 l/m 0,43 h 0,00 h 141 W/m 18,0 km/h (3 Bft) 95,62 %
01.12.2017 13:00 3,6 C 4,4 C 2,9 C 93 % 0 lf 1015,2 hPa 0,0 l/m 0,13 h 0,00 h 77 W/m 14,8 km/h (3 Bft) 96,32 %
01.12.2017 14:00 3,6 C 4,0 C 2,6 C 91 % 0 lf 1015,6 hPa 0,0 l/m 0,07 h 0,03 h 65 W/m 14,2 km/h (3 Bft) 97,31 %
01.12.2017 15:00 3,4 C 3,6 C 2,3 C 90 % 0 lf 1016,1 hPa 0,0 l/m 0,33 h 0,00 h 49 W/m 11,5 km/h (2 Bft) 96,52 %
01.12.2017 16:00 3,2 C 2,7 C 1,5 C 90 % 2 lf 1017,1 hPa 0,0 l/m 0,10 h 0,07 h 11 W/m 10,7 km/h (2 Bft) 94,76 %
01.12.2017 17:00 2,6 C 2,0 C 1,0 C 90 % 0 lf 1017,8 hPa 0,0 l/m 0,00 h 0,00 h 0 W/m 8,3 km/h (2 Bft) 96,87 %
01.12.2017 18:00 2,4 C 2,1 C 1,1 C 92 % 0 lf 1018,5 hPa 0,0 l/m 0,00 h 0,00 h 0 W/m 4,9 km/h (1 Bft) 98,31 %
01.12.2017 19:00 2,2 C 1,7 C 0,9 C 93 % 0 lf 1019,1 hPa 0,0 l/m 0,00 h 0,00 h 0 W/m 6,2 km/h (2 Bft) 95,86 %
01.12.2017 20:00 1,8 C 0,4 C -0,7 C 93 % 1 lf 1019,9 hPa 0,0 l/m 0,00 h 0,00 h 0 W/m 4,7 km/h (1 Bft) 95,47 %
01.12.2017 21:00 0,9 C -0,9 C -1,8 C 93 % 2 lf 1020,5 hPa 0,0 l/m 0,00 h 0,00 h 0 W/m 4,0 km/h (1 Bft) 97,52 %
01.12.2017 22:00 0,1 C -1,5 C -2,3 C 93 % 8 lf 1021,2 hPa 0,0 l/m 0,00 h 0,00 h 0 W/m 1,2 km/h (1 Bft) 95,59 %
01.12.2017 23:00 -0,5 C -2,2 C -3,0 C 93 % 14 lf 1021,5 hPa 0,0 l/m 0,00 h 0,00 h 0 W/m 0,0 km/h (0 Bft) 97,35 %
02.12.2017 00:00 -1,0 C -1,6 C -2,3 C 94 % 15 lf 1021,8 hPa 0,0 l/m 0,00 h 0,00 h 0 W/m 3,6 km/h (1 Bft) 97,38 %
02.12.2017 01:00 -1,3 C -1,8 C -2,3 C 95 % 7 lf 1022,1 hPa 0,0 l/m 0,00 h 0,00 h 0 W/m 6,5 km/h (2 Bft) 93,27 %
02.12.2017 02:00 -1,8 C -2,2 C -2,8 C 95 % 1 lf 1022,9 hPa 0,0 l/m 0,00 h 0,00 h 0 W/m 5,9 km/h (2 Bft) 98,66 %
02.12.2017 03:00 -2,2 C -2,2 C -2,8 C 96 % 1 lf 1023,6 hPa 0,0 l/m 0,00 h 0,00 h 0 W/m 6,1 km/h (2 Bft) 96,69 %
02.12.2017 04:00 -2,4 C -2,2 C -2,8 C 96 % 1 lf 1023,8 hPa 0,0 l/m 0,00 h 0,00 h 0 W/m 7,5 km/h (2 Bft) 94,89 %
02.12.2017 05:00 -2,4 C -2,2 C -2,8 C 96 % 1 lf 1024,0 hPa 0,0 l/m 0,00 h 0,00 h 0 W/m 7,9 km/h (2 Bft) 96,41 %
02.12.2017 06:00 -2,4 C -2,2 C -2,8 C 97 % 1 lf 1024,3 hPa 0,0 l/m 0,00 h 0,00 h 0 W/m 5,9 km/h (2 Bft) 95,50 %
02.12.2017 07:00 -2,5 C -2,6 C -2,8 C 97 % 1 lf 1024,9 hPa 0,0 l/m 0,00 h 0,00 h 0 W/m 7,2 km/h (2 Bft) 97,53 %
02.12.2017 08:00 -2,7 C -2,7 C -3,1 C 97 % 1 lf 1025,7 hPa 0,0 l/m 0,00 h 0,00 h 7 W/m 5,3 km/h (1 Bft) 96,73 %
02.12.2017 09:00 -2,5 C -2,3 C -2,7 C 97 % 1 lf 1025,9 hPa 0,0 l/m 0,00 h 0,00 h 19 W/m 5,9 km/h (2 Bft) 94,88 %
02.12.2017 10:00 -2,2 C -1,9 C -2,2 C 97 % 1 lf 1026,5 hPa 0,0 l/m 0,00 h 0,00 h 41 W/m 7,5 km/h (2 Bft) 96,64 %
02.12.2017 11:00 -2,1 C -1,6 C -2,1 C 97 % 2 lf 1026,8 hPa 0,0 l/m 0,00 h 0,00 h 52 W/m 6,4 km/h (2 Bft) 97,53 %
02.12.2017 12:00 -1,7 C -1,2 C -1,6 C 98 % 3 lf 1026,5 hPa 0,0 l/m 0,00 h 0,00 h 59 W/m 5,5 km/h (1 Bft) 95,43 %
02.12.2017 13:00 -1,3 C -1,1 C -1,2 C 98 % 3 lf 1026,3 hPa 0,0 l/m 0,00 h 0,00 h 42 W/m 7,8 km/h (2 Bft) 96,20 %
02.12.2017 14:00 -1,3 C -1,1 C -1,7 C 98 % 2 lf 1026,1 hPa 0,0 l/m 0,00 h 0,00 h 28 W/m 8,6 km/h (2 Bft) 96,29 %
02.12.2017 15:00 -1,2 C -1,1 C -1,7 C 98 % 2 lf 1026,2 hPa 0,0 l/m 0,00 h 0,00 h 15 W/m 7,6 km/h (2 Bft) 96,66 %
02.12.2017 16:00 -1,0 C -1,1 C -1,7 C 98 % 3 lf 1026,2 hPa 0,0 l/m 0,00 h 0,00 h 5 W/m 5,9 km/h (2 Bft) 97,02 %
02.12.2017 17:00 -0,9 C -1,0 C -1,5 C 98 % 3 lf 1026,4 hPa 0,0 l/m 0,00 h 0,00 h 0 W/m 7,4 km/h (2 Bft) 94,27 %
02.12.2017 18:00 -0,7 C -0,6 C -1,1 C 98 % 4 lf 1026,5 hPa 0,0 l/m 0,00 h 0,00 h 0 W/m 7,1 km/h (2 Bft) 96,42 %
02.12.2017 19:00 -0,4 C -0,5 C -1,1 C 98 % 9 lf 1026,5 hPa 0,0 l/m 0,00 h 0,00 h 0 W/m 9,3 km/h (2 Bft) 96,54 %
02.12.2017 20:00 -0,6 C -0,6 C -1,1 C 98 % 4 lf 1026,7 hPa 0,0 l/m 0,00 h 0,00 h 0 W/m 10,0 km/h (2 Bft) 98,27 %
02.12.2017 21:00 -0,6 C -0,5 C -1,1 C 98 % 5 lf 1026,4 hPa 0,0 l/m 0,00 h 0,00 h 0 W/m 8,7 km/h (2 Bft) 93,67 %
02.12.2017 22:00 -0,4 C -0,3 C -1,1 C 98 % 4 lf 1026,3 hPa 0,0 l/m 0,00 h 0,00 h 0 W/m 10,3 km/h (2 Bft) 96,61 %
02.12.2017 23:00 -0,6 C -0,6 C -1,2 C 98 % 3 lf 1026,0 hPa 0,0 l/m 0,00 h 0,00 h 0 W/m 8,1 km/h (2 Bft) 98,23 %
03.12.2017 00:00 -0,4 C -0,4 C -1,1 C 98 % 7 lf 1025,7 hPa 0,0 l/m 0,00 h 0,00 h 0 W/m 7,7 km/h (2 Bft) 92,68 %
03.12.2017 01:00 -0,3 C 0,0 C -0,8 C 98 % 13 lf 1025,2 hPa 0,0 l/m 0,00 h 0,00 h 0 W/m 11,5 km/h (2 Bft) 96,09 %
03.12.2017 02:00 -0,3 C 0,0 C -0,6 C 98 % 14 lf 1025,0 hPa 0,0 l/m 0,00 h 0,00 h 0 W/m 12,4 km/h (3 Bft) 97,35 %
03.12.2017 03:00 -0,3 C 0,0 C -0,6 C 98 % 7 lf 1024,6 hPa 0,0 l/m 0,00 h 0,00 h 0 W/m 12,1 km/h (2 Bft) 94,08 %
03.12.2017 04:00 -0,3 C 0,0 C -0,6 C 97 % 0 lf 1024,2 hPa 0,0 l/m 0,00 h 0,00 h 0 W/m 13,4 km/h (3 Bft) 97,98 %
03.12.2017 05:00 -0,2 C 0,0 C -1,1 C 96 % 3 lf 1023,7 hPa 0,0 l/m 0,00 h 0,30 h 0 W/m 16,4 km/h (3 Bft) 97,63 %
03.12.2017 06:00 -0,0 C 0,0 C -1,1 C 95 % 13 lf 1023,6 hPa 0,0 l/m 0,00 h 0,93 h 0 W/m 12,8 km/h (3 Bft) 92,29 %
03.12.2017 07:00 0,1 C -0,0 C -1,1 C 94 % 15 lf 1023,4 hPa 0,0 l/m 0,00 h 0,97 h 0 W/m 13,5 km/h (3 Bft) 99,10 %
03.12.2017 08:00 0,2 C 0,0 C -1,1 C 94 % 15 lf 1023,4 hPa 0,0 l/m 0,00 h 0,80 h 6 W/m 14,5 km/h (3 Bft) 96,65 %
03.12.2017 09:00 0,4 C 0,0 C -0,7 C 94 % 15 lf 1023,4 hPa 0,0 l/m 0,00 h 0,80 h 22 W/m 16,0 km/h (3 Bft) 96,61 %
03.12.2017 10:00 0,6 C 0,5 C -0,4 C 94 % 15 lf 1023,5 hPa 0,0 l/m 0,00 h 0,97 h 31 W/m 17,5 km/h (3 Bft) 95,14 %
03.12.2017 11:00 0,8 C 0,6 C 0,0 C 95 % 15 lf 1023,5 hPa 0,0 l/m 0,00 h 0,67 h 27 W/m 19,1 km/h (3 Bft) 96,96 %
03.12.2017 12:00 0,9 C 0,6 C 0,0 C 95 % 15 lf 1023,1 hPa 0,0 l/m 0,00 h 0,30 h 31 W/m 22,3 km/h (4 Bft) 95,46 %
03.12.2017 13:00 1,1 C 1,0 C 0,5 C 96 % 15 lf 1022,6 hPa 0,4 l/m 0,00 h 0,23 h 32 W/m 24,8 km/h (4 Bft) 97,12 %
03.12.2017 14:00 1,4 C 1,1 C 0,6 C 97 % 15 lf 1022,1 hPa 0,8 l/m 0,00 h 0,93 h 25 W/m 27,0 km/h (4 Bft) 95,37 %
03.12.2017 15:00 1,6 C 1,6 C 0,6 C 97 % 15 lf 1022,2 hPa 0,2 l/m 0,00 h 0,83 h 12 W/m 24,1 km/h (4 Bft) 95,84 %
03.12.2017 16:00 1,7 C 1,7 C 0,6 C 97 % 15 lf 1022,7 hPa 0,0 l/m 0,00 h 0,60 h 6 W/m 21,4 km/h (4 Bft) 96,83 %
03.12.2017 17:00 1,9 C 1,7 C 1,0 C 98 % 15 lf 1023,1 hPa 0,2 l/m 0,00 h 0,20 h 0 W/m 16,9 km/h (3 Bft) 98,12 %
03.12.2017 18:00 2,1 C 2,0 C 1,1 C 98 % 15 lf 1023,4 hPa 0,0 l/m 0,00 h 0,27 h 0 W/m 19,5 km/h (3 Bft) 94,28 %
03.12.2017 19:00 2,2 C 2,2 C 1,1 C 98 % 15 lf 1023,6 hPa 0,2 l/m 0,00 h 0,47 h 0 W/m 19,1 km/h (3 Bft) 97,23 %
03.12.2017 20:00 2,3 C 2,2 C 1,2 C 98 % 15 lf 1023,9 hPa 0,0 l/m 0,00 h 0,00 h 0 W/m 19,4 km/h (3 Bft) 98,23 %
03.12.2017 21:00 2,4 C 2,2 C 1,7 C 98 % 15 lf 1024,1 hPa 0,0 l/m 0,00 h 0,00 h 0 W/m 20,0 km/h (4 Bft) 94,77 %
03.12.2017 22:00 2,6 C 2,5 C 1,7 C 98 % 15 lf 1024,7 hPa 0,0 l/m 0,00 h 0,13 h 0 W/m 20,5 km/h (4 Bft) 96,71 %
03.12.2017 23:00 2,7 C 2,8 C 1,7 C 99 % 15 lf 1025,0 hPa 0,0 l/m 0,00 h 0,07 h 0 W/m 19,4 km/h (3 Bft) 96,43 %
Min-Datum _ 02.12.17 29.11.17 29.11.17 28.11.17 27.11.17 30.11.17 - - - - 28.11.17 30.11.17
_ Min-Zeit 08:28 23:14 22:44 15:04 01:56 14:52 - - - - 18:30 00:02
Minimum _ -2,7 C -2,8 C -3,3 C 82 % 0 lf 1002,2 hPa - - - - 0,0 km/h (0 Bft) 13,33 %
Max-Datum _ 27.11.17 28.11.17 28.11.17 03.12.17 27.11.17 02.12.17 27.11.17 28.11.17 27.11.17 28.11.17 27.11.17 27.11.17
_ Max-Zeit 19:48 11:22 14:46 23:04 00:00 11:02 22:12 09:10 14:24 13:04 12:56 00:04
Maximum _ 7,7 C 13,3 C 7,8 C 99 % 15 lf 1027,0 hPa 2,2 l/m 0,07 h 0,08 h 373 W/m 69,8 km/h
W-SW (8 Bft)
100,00 %
Durchschnitt _ 2,4 C 2,3 C 1,2 C 95 % 8 lf 1012,6 hPa #12,2 l/m #6:50 h #28:41 h 50 W/m 14,1 km/h (3 Bft) 96,37 %
© 2017 W. Hausmann